カタログに戻る

SITRO-AIS-39

運用中ナビゲーションSSO
NORAD 61778·PAYLOAD·🇷🇺 Russia
この衛星名は、まだ公式ソースで確認されていません。

打ち上げ Nov 4, 2024 から Vostochny Cosmodrome

Loading…

次のパス (今後24時間)

TLE

最新Source: Space-Track

元期: Sep 14, 2026, 21:20 UTC

1 61778U 24199AV  26257.88921947  .00087737  00000-0  81468-3 0  9996
2 61778  97.2698 136.2057 0002913 335.9846  24.1278 15.67162985148422

AllMySatでSITRO-AIS-39をリアルタイム追跡

Download on the App Store